,,PA_Meas_PMT16A,,PR_Meas_QMR101_102,,RH_Meas_QMH101,,SR_Meas_QMS101,,TA_Meas_QMH101,,GenWind,,GenWind,
time,status,PA,status,PR,status,RH,status,SR,status,TA,status,DirAvg,status,SpdAvg,
2017-03-01, 14:58:04,VALID,918.081,VALID,0,INVALID,132.663,VALID,106.044,VALID,19.1987,VALID,147,VALID,0,
2017-03-01, 14:59:04,VALID,918.097,VALID,0,INVALID,132.731,VALID,107.656,VALID,19.2572,VALID,147,VALID,0,
2017-03-01, 15:00:04,VALID,918.113,VALID,0,INVALID,132.808,VALID,109.59,VALID,19.3352,VALID,116,VALID,0,
2017-03-01, 15:01:04,VALID,918.138,VALID,0,INVALID,133.227,VALID,111.524,VALID,19.2753,VALID,116,VALID,0,
2017-03-01, 15:02:04,VALID,918.136,VALID,0,INVALID,133.463,VALID,113.565,VALID,19.2753,VALID,116,VALID,0,
2017-03-01, 15:03:04,VALID,918.165,VALID,0,INVALID,133.738,VALID,115.822,VALID,19.2753,VALID,116,VALID,0,
2017-03-01, 15:04:04,VALID,918.17,VALID,0,INVALID,133.791,VALID,117.97,VALID,19.3128,VALID,116,VALID,0,
2017-03-01, 15:05:04,VALID,918.174,VALID,0,INVALID,133.76,VALID,118.937,VALID,19.4118,VALID,128,VALID,0,
2017-03-01, 15:06:04,VALID,918.191,VALID,0,INVALID,133.799,VALID,121.623,VALID,19.4313,VALID,220,VALID,0,
2017-03-01, 15:07:04,VALID,918.173,VALID,0,INVALID,133.76,VALID,126.028,VALID,19.4298,VALID,220,VALID,0,
2017-03-01, 15:08:04,VALID,918.16,VALID,0,INVALID,133.791,VALID,129.789,VALID,19.4313,VALID,220,VALID,0,
2017-03-01, 15:09:04,VALID,918.181,VALID,0,INVALID,133.776,VALID,133.334,VALID,19.3908,VALID,220,VALID,0,
2017-03-01, 15:10:04,VALID,918.181,VALID,0,INVALID,133.791,VALID,136.665,VALID,19.3923,VALID,219,VALID,0,
2017-03-01, 15:11:04,VALID,918.195,VALID,0,INVALID,133.707,VALID,139.781,VALID,19.4118,VALID,220,VALID,0,
2017-03-01, 15:12:04,VALID,918.222,VALID,0,INVALID,133.6,VALID,143.112,VALID,19.4898,VALID,220,VALID,0,
2017-03-01, 15:13:04,VALID,918.23,VALID,0,INVALID,133.73,VALID,146.657,VALID,19.4313,VALID,220,VALID,0,
2017-03-01, 15:14:04,VALID,918.224,VALID,0,INVALID,133.76,VALID,150.418,VALID,19.4103,VALID,220,VALID,0,
2017-03-01, 15:15:04,VALID,918.256,VALID,0,INVALID,133.799,VALID,153.963,VALID,19.3908,VALID,220,VALID,0,
2017-03-01, 15:16:04,VALID,918.268,VALID,0,INVALID,133.768,VALID,157.724,VALID,19.3893,VALID,220,VALID,0,
2017-03-01, 15:17:04,VALID,918.287,VALID,0,INVALID,133.76,VALID,161.162,VALID,19.4327,VALID,220,VALID,0,
2017-03-01, 15:18:04,VALID,918.319,VALID,0,INVALID,133.791,VALID,164.063,VALID,19.3923,VALID,220,VALID,0,
2017-03-01, 15:19:04,VALID,918.296,VALID,0,INVALID,133.951,VALID,167.071,VALID,19.3143,VALID,220,VALID,0,
2017-03-01, 15:20:04,VALID,918.328,VALID,0,INVALID,133.959,VALID,170.617,VALID,19.2753,VALID,220,VALID,0,
2017-03-01, 15:21:04,VALID,918.35,VALID,0,INVALID,133.867,VALID,174.27,VALID,19.3143,VALID,220,VALID,0,
2017-03-01, 15:22:04,VALID,918.346,VALID,0,INVALID,133.745,VALID,179.534,VALID,19.3728,VALID,219,VALID,0,
2017-03-01, 15:23:04,VALID,918.348,VALID,0,INVALID,133.661,VALID,187.27,VALID,19.4313,VALID,220,VALID,0,
2017-03-01, 15:24:04,VALID,918.387,VALID,0,INVALID,133.638,VALID,196.188,VALID,19.4493,VALID,245,VALID,0,
2017-03-01, 15:25:04,VALID,918.372,VALID,0,INVALID,133.699,VALID,201.345,VALID,19.4118,VALID,275,VALID,0,
2017-03-01, 15:26:04,VALID,918.411,VALID,0,INVALID,133.73,VALID,210.262,VALID,19.3923,VALID,303,VALID,0,
2017-03-01, 15:27:04,VALID,918.404,VALID,0,INVALID,133.608,VALID,214.13,VALID,19.4103,VALID,303,VALID,0,
2017-03-01, 15:28:04,VALID,918.378,VALID,0,INVALID,133.44,VALID,214.667,VALID,19.5093,VALID,289,VALID,0,
2017-03-01, 15:29:04,VALID,918.399,VALID,0,INVALID,133.379,VALID,232.718,VALID,19.5078,VALID,289,VALID,0,
2017-03-01, 15:30:04,VALID,918.396,VALID,0,INVALID,133.265,VALID,240.131,VALID,19.5858,VALID,289,VALID,0,
2017-03-01, 15:31:04,VALID,918.399,VALID,0,INVALID,133.494,VALID,250.768,VALID,19.5078,VALID,296,VALID,0,
2017-03-01, 15:32:04,VALID,918.416,VALID,0,INVALID,133.41,VALID,251.842,VALID,19.5663,VALID,296,VALID,0,
2017-03-01, 15:33:04,VALID,918.411,VALID,0,INVALID,133.547,VALID,263.231,VALID,19.5858,VALID,299,VALID,0,
2017-03-01, 15:34:04,VALID,918.387,VALID,0,INVALID,133.585,VALID,262.694,VALID,19.6248,VALID,300,VALID,0,
2017-03-01, 15:35:04,VALID,918.384,VALID,0,INVALID,133.456,VALID,263.875,VALID,19.7418,VALID,300,VALID,0,
2017-03-01, 15:36:04,VALID,918.364,VALID,0,INVALID,133.356,VALID,276.124,VALID,19.8588,VALID,287,VALID,0,
2017-03-01, 15:37:04,VALID,918.394,VALID,0,INVALID,133.73,VALID,280.207,VALID,19.8003,VALID,264,VALID,0,
2017-03-01, 15:38:04,VALID,918.405,VALID,0,INVALID,133.86,VALID,291.81,VALID,19.7988,VALID,264,VALID,0,
2017-03-01, 15:39:04,VALID,918.369,VALID,0,INVALID,133.783,VALID,295.248,VALID,19.8978,VALID,264,VALID,0,
2017-03-01, 15:40:04,VALID,918.367,VALID,0,INVALID,133.646,VALID,295.571,VALID,20.0523,VALID,264,VALID,0,
2017-03-01, 15:41:04,VALID,918.33,VALID,0,INVALID,133.257,VALID,305.67,VALID,20.2863,VALID,38,VALID,0,
2017-03-01, 15:42:04,VALID,918.378,VALID,0,INVALID,133.303,VALID,286.331,VALID,20.4618,VALID,23,VALID,0,
2017-03-01, 15:43:04,VALID,918.379,VALID,0,INVALID,133.699,VALID,257.644,VALID,20.5009,VALID,21,VALID,0,
2017-03-01, 15:44:04,VALID,918.364,VALID,0,INVALID,134.218,VALID,252.809,VALID,20.4618,VALID,319,VALID,0,
2017-03-01, 15:45:04,VALID,918.342,VALID,0,INVALID,134.462,VALID,251.842,VALID,20.3838,VALID,270,VALID,0,
2017-03-01, 15:46:04,VALID,918.358,VALID,0,INVALID,134.431,VALID,251.627,VALID,20.3838,VALID,256,VALID,0,
2017-03-01, 15:47:04,VALID,918.358,VALID,0,INVALID,134.332,VALID,252.057,VALID,20.3464,VALID,256,VALID,0,
2017-03-01, 15:48:04,VALID,918.35,VALID,0,INVALID,134.111,VALID,259.793,VALID,20.2473,VALID,256,VALID,0,
2017-03-01, 15:49:04,VALID,918.35,VALID,0,INVALID,134.012,VALID,270.215,VALID,20.2083,VALID,256,VALID,0,
2017-03-01, 15:50:04,VALID,918.323,VALID,0,INVALID,134.142,VALID,264.198,VALID,20.2684,VALID,256,VALID,0,
2017-03-01, 15:51:04,VALID,918.331,VALID,0,INVALID,134.165,VALID,265.38,VALID,20.2668,VALID,256,VALID,0,
2017-03-01, 15:52:04,VALID,918.328,VALID,0,INVALID,134.18,VALID,263.446,VALID,20.2863,VALID,256,VALID,0,
2017-03-01, 15:53:04,VALID,918.35,VALID,0,INVALID,134.02,VALID,265.38,VALID,20.2473,VALID,256,VALID,0,
2017-03-01, 15:54:04,VALID,918.319,VALID,0,INVALID,134.096,VALID,267.636,VALID,20.3058,VALID,258,VALID,0,
2017-03-01, 15:55:04,VALID,918.33,VALID,0,INVALID,134.119,VALID,271.396,VALID,20.3643,VALID,273,VALID,0,
2017-03-01, 15:56:04,VALID,918.324,VALID,0,INVALID,134.142,VALID,273.33,VALID,20.4423,VALID,270,VALID,0,
2017-03-01, 15:57:04,VALID,918.34,VALID,0,INVALID,134.149,VALID,280.099,VALID,20.5188,VALID,270,VALID,0,
2017-03-01, 15:58:04,VALID,918.311,VALID,0,INVALID,134.203,VALID,279.132,VALID,20.6374,VALID,270,VALID,0,
2017-03-01, 15:59:04,VALID,918.282,VALID,0,INVALID,134.073,VALID,275.479,VALID,20.6943,VALID,280,VALID,0,
2017-03-01, 16:00:04,VALID,918.3,VALID,0,INVALID,132.251,VALID,276.016,VALID,20.6569,VALID,299,VALID,0,
2017-03-01, 16:01:04,VALID,918.267,VALID,0,INVALID,131.336,VALID,278.702,VALID,20.7154,VALID,300,VALID,0,
2017-03-01, 16:02:04,VALID,918.245,VALID,0,INVALID,130.482,VALID,283.967,VALID,20.7349,VALID,305,VALID,0,
2017-03-01, 16:03:04,VALID,918.252,VALID,0,INVALID,130.414,VALID,295.248,VALID,20.7544,VALID,296,VALID,0,
2017-03-01, 16:04:04,VALID,918.259,VALID,0,INVALID,127.921,VALID,315.984,VALID,20.6748,VALID,292,VALID,0,
2017-03-01, 16:05:04,VALID,918.233,VALID,0,INVALID,120.915,VALID,337.902,VALID,20.6374,VALID,292,VALID,0,
2017-03-01, 16:06:04,VALID,918.242,VALID,0,VALID,99.2797,VALID,339.299,VALID,20.5773,VALID,286,VALID,0,
2017-03-01, 16:07:04,VALID,918.215,VALID,0,VALID,104,VALID,365.945,VALID,20.5984,VALID,287,VALID,0,
2017-03-01, 16:08:04,VALID,918.231,VALID,0,VALID,102.809,VALID,389.152,VALID,20.6163,VALID,301,VALID,0,
2017-03-01, 16:09:04,VALID,918.238,VALID,0,VALID,104,VALID,368.308,VALID,20.6943,VALID,283,VALID,0,
2017-03-01, 16:10:04,VALID,918.262,VALID,0,VALID,96.3371,VALID,323.505,VALID,20.7333,VALID,282,VALID,0,
2017-03-01, 16:11:04,VALID,918.27,VALID,0,VALID,103.945,VALID,305.133,VALID,20.8113,VALID,287,VALID,0,
2017-03-01, 16:12:04,VALID,918.262,VALID,0,VALID,101.346,VALID,299.546,VALID,20.8699,VALID,293,VALID,0,
2017-03-01, 16:13:04,VALID,918.269,VALID,0,INVALID,117.035,VALID,296.323,VALID,20.9479,VALID,304,VALID,0,
2017-03-01, 16:14:04,VALID,918.257,VALID,0,INVALID,125.42,VALID,294.389,VALID,21.0665,VALID,356,VALID,0,
2017-03-01, 16:15:04,VALID,918.247,VALID,0,INVALID,121.212,VALID,293.637,VALID,21.2015,VALID,325,VALID,0,
2017-03-01, 16:16:04,VALID,918.265,VALID,0,VALID,104,VALID,292.885,VALID,21.3575,VALID,353,VALID,0,
2017-03-01, 16:17:04,VALID,918.257,VALID,0,INVALID,115.937,VALID,292.777,VALID,21.5526,VALID,347,VALID,0,
2017-03-01, 16:18:04,VALID,918.295,VALID,0,VALID,100.606,VALID,292.885,VALID,21.7672,VALID,346,VALID,0,
2017-03-01, 16:19:04,VALID,918.277,VALID,0,VALID,95.0106,VALID,293.959,VALID,21.8842,VALID,339,VALID,0,
2017-03-01, 16:20:04,VALID,918.242,VALID,0,VALID,92.6779,VALID,294.926,VALID,21.9606,VALID,284,VALID,0,
2017-03-01, 16:21:04,VALID,918.263,VALID,0,VALID,95.8035,VALID,295.785,VALID,22.0208,VALID,285,VALID,0,
2017-03-01, 16:22:04,VALID,918.241,VALID,0,VALID,93.2877,VALID,296.108,VALID,22.081,VALID,326,VALID,0,
2017-03-01, 16:23:04,VALID,918.214,VALID,0,VALID,91.9231,VALID,297.29,VALID,22.0794,VALID,295,VALID,0,
2017-03-01, 16:24:04,VALID,918.246,VALID,0,VALID,89.72,VALID,298.364,VALID,22.0794,VALID,302,VALID,0,
2017-03-01, 16:25:04,VALID,918.245,VALID,0,VALID,93.1963,VALID,299.009,VALID,21.9428,VALID,343,VALID,0,
2017-03-01, 16:26:04,VALID,918.234,VALID,0,INVALID,112.964,VALID,300.191,VALID,22.003,VALID,344,VALID,0,
2017-03-01, 16:27:04,VALID,918.248,VALID,0,INVALID,118.902,VALID,301.05,VALID,22.1184,INVALID,360,VALID,0,
2017-03-01, 16:28:04,VALID,918.228,VALID,0,INVALID,114.084,VALID,302.125,VALID,22.2567,VALID,303,VALID,0,
2017-03-01, 16:29:04,VALID,918.225,VALID,0,VALID,104,VALID,302.877,VALID,22.3916,INVALID,360,VALID,0,
2017-03-01, 16:30:04,VALID,918.222,VALID,0,VALID,98.4717,VALID,303.414,VALID,22.5281,INVALID,360,VALID,0,
2017-03-01, 16:31:04,VALID,918.2,VALID,0,VALID,96.2304,VALID,304.488,VALID,22.6257,VALID,360,VALID,0,
2017-03-01, 16:32:04,VALID,918.229,VALID,0,VALID,96.2914,VALID,305.67,VALID,22.6647,VALID,17,VALID,0,
2017-03-01, 16:33:04,VALID,918.216,VALID,0,VALID,96.3905,VALID,306.852,VALID,22.6452,VALID,13,VALID,0,
2017-03-01, 16:34:04,VALID,918.228,VALID,0,VALID,101.498,VALID,308.678,VALID,22.5867,VALID,344,VALID,0,
2017-03-01, 16:35:04,VALID,918.2,VALID,0,VALID,99.7219,VALID,311.257,VALID,22.4306,VALID,338,VALID,1.39258,
2017-03-01, 16:36:04,VALID,918.158,VALID,0,INVALID,118.171,VALID,314.373,VALID,22.333,VALID,6,VALID,0.103906,
2017-03-01, 16:37:04,VALID,918.186,VALID,0,INVALID,115.708,VALID,319.637,VALID,22.3135,VALID,328,VALID,0,
2017-03-01, 16:38:04,VALID,918.193,VALID,0,INVALID,113.353,VALID,328.448,VALID,22.3135,VALID,335,VALID,0,
2017-03-01, 16:39:04,VALID,918.154,VALID,0,VALID,102.703,VALID,339.407,VALID,22.2745,VALID,17,VALID,0.0121094,
2017-03-01, 16:40:04,VALID,918.167,VALID,0,VALID,92.6702,VALID,350.795,VALID,22.255,VALID,2,VALID,0,
2017-03-01, 16:41:04,VALID,918.161,VALID,0,VALID,94.599,VALID,362.292,VALID,22.1184,VALID,349,VALID,0,
2017-03-01, 16:42:04,VALID,918.155,VALID,0,VALID,102.062,VALID,379.59,VALID,22.0989,VALID,356,VALID,0,
2017-03-01, 16:43:04,VALID,918.231,VALID,0,INVALID,109.991,VALID,405.805,VALID,22.1379,VALID,18,VALID,0,
2017-03-01, 16:44:04,VALID,918.216,VALID,0,INVALID,118.262,VALID,394.631,VALID,22.255,VALID,357,VALID,0,
2017-03-01, 16:45:04,VALID,918.239,VALID,0,INVALID,125.443,VALID,391.73,VALID,22.3916,VALID,358,VALID,0,
2017-03-01, 16:46:04,VALID,918.241,VALID,0,INVALID,122.798,VALID,410.318,VALID,22.4484,VALID,3,VALID,0,
2017-03-01, 16:47:04,VALID,918.226,VALID,0,VALID,101.3,VALID,446.525,VALID,22.4874,VALID,358,VALID,0,
2017-03-01, 16:48:04,VALID,918.304,VALID,0,INVALID,120.641,VALID,431.699,VALID,22.5281,VALID,2,VALID,0,
2017-03-01, 16:49:04,VALID,918.308,VALID,0,INVALID,114.252,VALID,427.508,VALID,22.4874,VALID,8,VALID,0,
2017-03-01, 16:50:04,VALID,918.298,VALID,0,VALID,102.047,VALID,430.946,VALID,22.5477,VALID,360,VALID,0,
2017-03-01, 16:51:04,VALID,918.291,VALID,0,VALID,96.4362,VALID,441.368,VALID,22.4874,VALID,32,VALID,0,
2017-03-01, 16:52:04,VALID,918.341,VALID,0,VALID,101.422,VALID,452.864,VALID,22.585,VALID,18,VALID,0,
2017-03-01, 16:53:04,VALID,918.331,VALID,0,VALID,104,VALID,499.709,VALID,22.6825,VALID,334,VALID,0,
2017-03-01, 16:54:04,VALID,918.355,VALID,0,VALID,86.0303,VALID,523.453,VALID,22.663,VALID,329,VALID,0,
2017-03-01, 16:55:04,VALID,918.321,VALID,0,VALID,92.2814,VALID,491.543,VALID,22.7411,VALID,324,VALID,0,
2017-03-01, 16:56:04,VALID,918.338,VALID,0,VALID,95.7196,VALID,492.08,VALID,22.9753,VALID,324,VALID,0,
2017-03-01, 16:57:04,VALID,918.352,VALID,0,VALID,87.7989,VALID,480.047,VALID,23.2094,VALID,324,VALID,0,
2017-03-01, 16:58:04,VALID,918.354,VALID,0,VALID,89.2092,VALID,468.443,VALID,23.4437,VALID,324,VALID,0,
2017-03-01, 16:59:04,VALID,918.359,VALID,0,VALID,89.5599,VALID,432.88,VALID,23.6388,VALID,338,VALID,0,
2017-03-01, 17:00:04,VALID,918.371,VALID,0,VALID,89.3541,VALID,407.309,VALID,23.8536,VALID,56,VALID,0,
2017-03-01, 17:01:04,VALID,918.35,VALID,0,VALID,83.0419,VALID,400.541,VALID,24.0683,VALID,54,VALID,0,
2017-03-01, 17:02:04,VALID,918.328,VALID,0,VALID,82.1194,VALID,404.301,VALID,24.2245,VALID,68,VALID,0,
2017-03-01, 17:03:04,VALID,918.348,VALID,0,VALID,79.2454,VALID,404.623,VALID,24.2245,VALID,202,VALID,0,
2017-03-01, 17:04:04,VALID,918.348,VALID,0,VALID,81.1589,VALID,404.516,VALID,24.3806,VALID,202,VALID,0,
2017-03-01, 17:05:04,VALID,918.324,VALID,0,VALID,79.9773,VALID,409.781,VALID,24.5368,VALID,207,VALID,0,
2017-03-01, 17:06:04,VALID,918.319,VALID,0,VALID,80.1069,VALID,410.533,VALID,24.6149,VALID,263,VALID,0,
2017-03-01, 17:07:04,VALID,918.316,VALID,0,VALID,80.0459,VALID,404.838,VALID,24.6754,VALID,16,VALID,0,
2017-03-01, 17:08:04,VALID,918.308,VALID,0,VALID,78.6355,VALID,402.689,VALID,24.7144,VALID,348,VALID,0,
2017-03-01, 17:09:04,VALID,918.3,VALID,0,VALID,79.0853,VALID,407.202,VALID,24.7321,VALID,15,VALID,0,
2017-03-01, 17:10:04,VALID,918.298,VALID,0,VALID,79.6876,VALID,411.5,VALID,24.7907,VALID,12,VALID,0,
2017-03-01, 17:11:04,VALID,918.289,VALID,0,VALID,75.0144,VALID,416.334,VALID,24.7711,VALID,225,VALID,0,
2017-03-01, 17:12:04,VALID,918.243,VALID,0,VALID,75.4337,VALID,418.806,VALID,24.4978,VALID,260,VALID,0,
2017-03-01, 17:13:04,VALID,918.264,VALID,0,VALID,74.9839,VALID,422.888,VALID,24.1464,VALID,294,VALID,0,
2017-03-01, 17:14:04,VALID,918.244,VALID,0,VALID,76.6992,VALID,425.145,VALID,23.9121,VALID,254,VALID,0,
2017-03-01, 17:15:04,VALID,918.195,VALID,0,VALID,80.1526,VALID,437.178,VALID,23.6956,VALID,302,VALID,0,
2017-03-01, 17:16:04,VALID,918.213,VALID,0,VALID,80.5643,VALID,444.591,VALID,23.6566,VALID,310,VALID,0,
2017-03-01, 17:17:04,VALID,918.178,VALID,0,VALID,80.5795,VALID,458.559,VALID,23.6566,VALID,286,VALID,0,
2017-03-01, 17:18:04,VALID,918.166,VALID,0,VALID,83.2096,VALID,478.543,VALID,23.6956,VALID,354,VALID,0,
2017-03-01, 17:19:04,VALID,918.156,VALID,0,VALID,82.4625,VALID,506.263,VALID,23.8536,INVALID,360,VALID,0,
2017-03-01, 17:20:04,VALID,918.142,VALID,0,VALID,80.488,VALID,476.609,VALID,23.8517,VALID,265,VALID,0,
2017-03-01, 17:21:04,VALID,918.092,VALID,0,VALID,81.0293,VALID,443.302,VALID,23.7737,VALID,238,VALID,0,
2017-03-01, 17:22:04,VALID,918.047,VALID,0,VALID,82.1576,VALID,467.369,VALID,23.7542,VALID,309,VALID,0,
2017-03-01, 17:23:04,VALID,918.066,VALID,0,VALID,80.1221,VALID,444.914,VALID,23.7133,VALID,303,VALID,0,
2017-03-01, 17:24:04,VALID,918.03,VALID,0,VALID,80.7243,VALID,424.607,VALID,23.6566,VALID,311,VALID,0,
2017-03-01, 17:25:04,VALID,918.009,VALID,0,VALID,80.0459,VALID,416.334,VALID,23.7328,VALID,264,VALID,0,
2017-03-01, 17:26:04,VALID,917.989,VALID,0,VALID,78.8261,VALID,412.789,VALID,23.7328,VALID,236,VALID,0,
2017-03-01, 17:27:04,VALID,917.976,VALID,0,VALID,80.3203,VALID,411.07,VALID,23.5785,VALID,247,VALID,0,
2017-03-01, 17:28:04,VALID,917.957,VALID,0,VALID,80.8997,VALID,409.995,VALID,23.4809,VALID,291,VALID,0,
2017-03-01, 17:29:04,VALID,917.974,VALID,0,VALID,79.3903,VALID,408.491,VALID,23.5199,VALID,249,VALID,0,
2017-03-01, 17:30:04,VALID,917.958,VALID,0,VALID,77.3777,VALID,407.632,VALID,23.598,VALID,220,VALID,0,
2017-03-01, 17:31:04,VALID,917.948,VALID,0,VALID,81.3647,VALID,409.351,VALID,23.5962,VALID,297,VALID,0,
2017-03-01, 17:32:04,VALID,917.948,VALID,0,VALID,78.4526,VALID,407.847,VALID,23.5395,VALID,278,VALID,0,
2017-03-01, 17:33:04,VALID,917.925,VALID,0,VALID,82.0813,VALID,406.02,VALID,23.4596,VALID,305,VALID,0,
2017-03-01, 17:34:04,VALID,917.937,VALID,0,VALID,80.1221,VALID,402.689,VALID,23.5395,VALID,350,VALID,0,
2017-03-01, 17:35:04,VALID,917.9,VALID,0,VALID,78.3001,VALID,401.615,VALID,23.6175,VALID,286,VALID,0,
2017-03-01, 17:36:04,VALID,917.881,VALID,0,VALID,83.1943,VALID,403.119,VALID,23.6584,VALID,313,VALID,0,
2017-03-01, 17:37:04,VALID,917.897,VALID,0,VALID,79.2759,VALID,404.194,VALID,23.8145,VALID,320,VALID,0,
2017-03-01, 17:38:04,VALID,917.906,VALID,0,VALID,75.6929,VALID,409.136,VALID,23.8517,VALID,285,VALID,0,
2017-03-01, 17:39:04,VALID,917.89,VALID,0,VALID,76.6458,VALID,420.095,VALID,23.5785,VALID,328,VALID,0,
2017-03-01, 17:40:04,VALID,917.896,VALID,0,VALID,78.6279,VALID,432.451,VALID,23.4827,INVALID,360,VALID,0,
2017-03-01, 17:41:04,VALID,917.856,VALID,0,VALID,81.0826,VALID,453.187,VALID,23.4419,VALID,321,VALID,0,
2017-03-01, 17:42:04,VALID,917.881,VALID,0,VALID,82.2567,VALID,478.006,VALID,23.6175,VALID,321,VALID,0,
2017-03-01, 17:43:04,VALID,917.889,VALID,0,VALID,79.4436,VALID,493.047,VALID,23.7151,VALID,307,VALID,0,
2017-03-01, 17:44:04,VALID,917.872,VALID,0,VALID,77.9647,VALID,514.751,VALID,23.559,VALID,247,VALID,0,
2017-03-01, 17:45:04,VALID,917.854,VALID,0,VALID,80.8387,VALID,524.528,VALID,23.4028,VALID,251,VALID,0,
2017-03-01, 17:46:04,VALID,917.846,VALID,0,VALID,82.5159,VALID,519.478,VALID,23.4632,VALID,252,VALID,0,
2017-03-01, 17:47:04,VALID,917.856,VALID,0,VALID,81.6239,VALID,511.312,VALID,23.5004,VALID,253,VALID,0,
2017-03-01, 17:48:04,VALID,917.814,VALID,0,VALID,84.0177,VALID,500.031,VALID,23.598,VALID,352,VALID,0,
2017-03-01, 17:49:04,VALID,917.828,VALID,0,VALID,79.436,VALID,489.609,VALID,23.7151,VALID,305,VALID,0,
2017-03-01, 17:50:04,VALID,917.794,VALID,0,VALID,81.0674,VALID,482.088,VALID,23.8322,VALID,334,VALID,0,
2017-03-01, 17:51:04,VALID,917.804,VALID,0,VALID,81.5553,VALID,481.551,VALID,24.0469,VALID,360,VALID,0,
2017-03-01, 17:52:04,VALID,917.758,VALID,0,VALID,79.7867,VALID,482.733,VALID,24.2617,VALID,360,VALID,0,
2017-03-01, 17:53:04,VALID,917.74,VALID,0,VALID,78.1705,VALID,496.486,VALID,24.4178,VALID,293,VALID,0,
2017-03-01, 17:54:04,VALID,917.743,VALID,0,VALID,77.3548,VALID,499.279,VALID,24.4178,VALID,299,VALID,0,
2017-03-01, 17:55:04,VALID,917.707,VALID,0,VALID,78.2772,VALID,499.386,VALID,24.535,VALID,20,VALID,0,
2017-03-01, 17:56:04,VALID,917.672,VALID,0,VALID,78.4373,VALID,513.031,VALID,24.5935,VALID,1,VALID,0,
2017-03-01, 17:57:04,VALID,917.659,VALID,0,VALID,74.2749,VALID,534.09,VALID,24.6912,VALID,253,VALID,0,
2017-03-01, 17:58:04,VALID,917.617,VALID,0,VALID,73.383,VALID,585.017,VALID,24.5935,VALID,308,VALID,0,
2017-03-01, 17:59:04,VALID,917.617,VALID,0,VALID,74.2444,VALID,671.185,VALID,24.5155,VALID,308,VALID,0,
2017-03-01, 18:00:04,VALID,917.6,VALID,0,VALID,75.1745,VALID,687.838,VALID,24.6307,VALID,309,VALID,0,
2017-03-01, 18:01:04,VALID,917.597,VALID,0,VALID,75.4794,VALID,702.128,VALID,24.8064,VALID,263,VALID,0,
2017-03-01, 18:02:04,VALID,917.601,VALID,0,VALID,76.2418,VALID,706.426,VALID,24.8669,VALID,251,VALID,0,
2017-03-01, 18:03:04,VALID,917.567,VALID,0,VALID,73.4516,VALID,660.441,VALID,24.9431,VALID,282,VALID,0,
2017-03-01, 18:04:04,VALID,917.571,VALID,0,VALID,72.026,VALID,577.819,VALID,24.8669,VALID,276,VALID,0,
2017-03-01, 18:05:04,VALID,917.578,VALID,0,VALID,73.8328,VALID,560.628,VALID,24.6502,VALID,234,VALID,0,
2017-03-01, 18:06:04,VALID,917.548,VALID,0,VALID,73.8175,VALID,552.57,VALID,24.5155,VALID,208,VALID,0,
2017-03-01, 18:07:04,VALID,917.518,VALID,0,VALID,74.4274,VALID,561.595,VALID,24.4745,VALID,199,VALID,0,
2017-03-01, 18:08:04,VALID,917.509,VALID,0,VALID,75.1898,VALID,575.67,VALID,24.5136,VALID,259,VALID,0,
2017-03-01, 18:09:04,VALID,917.492,VALID,0,VALID,77.9571,VALID,589.852,VALID,24.5136,VALID,302,VALID,0.3,
2017-03-01, 18:10:04,VALID,917.504,VALID,0,VALID,75.7615,VALID,597.803,VALID,24.5331,VALID,277,VALID,0,
2017-03-01, 18:11:04,VALID,917.431,VALID,0,VALID,73.2458,VALID,600.489,VALID,24.5331,VALID,294,VALID,0,
2017-03-01, 18:12:04,VALID,917.45,VALID,0,VALID,73.0095,VALID,596.513,VALID,24.4745,VALID,250,VALID,0,
2017-03-01, 18:13:04,VALID,917.403,VALID,0,VALID,73.9853,VALID,594.472,VALID,24.3769,VALID,259,VALID,0,
2017-03-01, 18:14:04,VALID,917.375,VALID,0,VALID,72.9256,VALID,568.901,VALID,24.2793,VALID,235,VALID,0,
2017-03-01, 18:15:04,VALID,917.382,VALID,0,VALID,74.0615,VALID,541.181,VALID,24.1622,VALID,252,VALID,0,
2017-03-01, 18:16:04,VALID,917.341,VALID,0,VALID,73.2077,VALID,517.651,VALID,24.0646,VALID,251,VALID,0,
2017-03-01, 18:17:04,VALID,917.309,VALID,0,VALID,74.5494,VALID,510.131,VALID,24.0256,VALID,251,VALID,0,
2017-03-01, 18:18:04,VALID,917.303,VALID,0,VALID,76.7602,VALID,510.023,VALID,24.0256,VALID,266,VALID,0,
2017-03-01, 18:19:04,VALID,917.285,VALID,0,VALID,78.2772,VALID,509.701,VALID,24.0646,VALID,263,VALID,0,
2017-03-01, 18:20:04,VALID,917.27,VALID,0,VALID,73.3754,VALID,516.792,VALID,23.9847,VALID,245,VALID,0,
2017-03-01, 18:21:04,VALID,917.255,VALID,0,VALID,75.4794,VALID,522.594,VALID,23.889,VALID,245,VALID,0,
2017-03-01, 18:22:04,VALID,917.27,VALID,0,VALID,76.1579,VALID,533.445,VALID,23.9085,VALID,254,VALID,0,
2017-03-01, 18:23:04,VALID,917.207,VALID,0,VALID,75.3422,VALID,542.793,VALID,23.9847,VALID,309,VALID,0,
2017-03-01, 18:24:04,VALID,917.168,VALID,0,VALID,74.7552,VALID,537.421,VALID,24.1817,VALID,292,VALID,0,
2017-03-01, 18:25:04,VALID,917.173,VALID,0,VALID,71.7058,VALID,529.255,VALID,24.1427,VALID,260,VALID,0,
2017-03-01, 18:26:04,VALID,917.154,VALID,0,VALID,74.4045,VALID,535.057,VALID,24.0451,VALID,249,VALID,0,
2017-03-01, 18:27:04,VALID,917.136,VALID,0,VALID,74.6942,VALID,547.95,VALID,23.967,VALID,283,VALID,0,
2017-03-01, 18:28:04,VALID,917.127,VALID,0,VALID,75.4261,VALID,573.951,VALID,23.9262,VALID,284,VALID,0,
2017-03-01, 18:29:04,VALID,917.099,VALID,0,VALID,73.4516,VALID,562.562,VALID,24.1018,VALID,218,VALID,0,
2017-03-01, 18:30:04,VALID,917.09,VALID,0,VALID,72.6283,VALID,574.273,VALID,24.2403,VALID,216,VALID,0,
2017-03-01, 18:31:04,VALID,917.034,VALID,0,VALID,73.1391,VALID,594.902,VALID,24.3574,VALID,206,VALID,0,
2017-03-01, 18:32:04,VALID,917.041,VALID,0,VALID,74.374,VALID,564.818,VALID,24.4141,VALID,210,VALID,0,
2017-03-01, 18:33:04,VALID,917.067,VALID,0,VALID,74.2749,VALID,556.545,VALID,24.5508,VALID,305,VALID,0.00351562,
2017-03-01, 18:34:04,VALID,917.054,VALID,0,VALID,75.0602,VALID,556.545,VALID,24.5898,VALID,331,VALID,0,
2017-03-01, 18:35:04,VALID,917.008,VALID,0,VALID,71.4085,VALID,553.214,VALID,24.6093,VALID,291,VALID,0,
2017-03-01, 18:36:04,VALID,917.023,VALID,0,VALID,74.3588,VALID,545.801,VALID,24.4336,VALID,266,VALID,0,
2017-03-01, 18:37:04,VALID,917.047,VALID,0,VALID,71.8583,VALID,534.412,VALID,24.3379,VALID,252,VALID,0,
2017-03-01, 18:38:04,VALID,917.042,VALID,0,VALID,72.8341,VALID,535.164,VALID,24.1994,VALID,272,VALID,0,
2017-03-01, 18:39:04,VALID,917.015,VALID,0,VALID,73.3601,VALID,533.123,VALID,24.2189,VALID,308,VALID,0,
2017-03-01, 18:40:04,VALID,917.009,VALID,0,VALID,74.0691,VALID,534.412,VALID,24.1994,VALID,305,VALID,0,
2017-03-01, 18:41:04,VALID,917,VALID,0,VALID,74.1225,VALID,545.156,VALID,24.3751,VALID,319,VALID,0,
2017-03-01, 18:42:04,VALID,917.025,VALID,0,VALID,72.613,VALID,546.553,VALID,24.7069,VALID,355,VALID,0,
2017-03-01, 18:43:04,VALID,916.979,VALID,0,VALID,69.9906,VALID,550.851,VALID,24.865,VALID,333,VALID,0,